[[{"header":{"parameterUnit":"m.s-1","parameterCategory":1,"la1":30.2991,"la2":30.254,"lo1":-89.0895,"lo2":-89.0444,"dy":0.0017,"dx":0.0017,"nx":28,"ny":28,"refTime":"2023-08-15T21:00:00:Z","depth":0,"parameterNumber":2,"parameterNumberName":"U-component_of_WINDS"},"data":[0,0,0,0,0,0,0,0,0,0,0,0,0,0,0,0,0,0,0,0,0,0,0,0,0,0,0,0,0,0,0,0,0,0,0,0,0,0,0,0,0,0,0,0,0,0,0,0,0,0,0,0,0,0,0,0,0,0,-2.0241,-2.0241,0,-2.0272,-2.0272,-2.0273,-2.0184,-2.0182,-2.0179,-2.0176,-2.0207,-2.021,-2.0213,0,0,0,0,0,0,0,0,0,0,0,0,0,-2.0104,-2.0107,-2.0241,-2.0241,-2.0242,-2.0272,-2.0272,-2.0273,-2.0185,-2.0181,-2.0178,-2.0175,-2.0206,-2.021,-2.0214,0,0,0,0,0,0,0,0,0,0,0,0,0,-2.0152,-2.0108,-2.0241,-2.0201,-2.0198,-2.0272,-2.0272,-2.0273,-2.0185,-2.0181,-2.0177,-2.0173,-2.0205,-2.0209,-2.0214,-2.0327,0,0,-2.023,-2.0232,0,0,0,0,0,0,0,0,-2.0149,-2.0157,-2.0207,-2.0204,-2.0201,-2.022,-2.0235,-2.0291,-2.0186,-2.019,-2.0176,-2.0171,-2.0215,-2.0218,-2.0233,-2.0328,-2.033,-2.023,-2.0233,-2.0235,-2.0237,0,0,0,0,0,0,0,-2.0146,-2.0155,-2.0253,-2.0208,-2.0204,-2.0182,-2.0184,-2.0245,-2.0225,-2.019,-2.0183,-2.0188,-2.0212,-2.0229,-2.0233,-2.033,-2.023,-2.0234,-2.0238,-2.024,-2.0518,-2.0523,0,0,0,0,0,0,-2.0148,-2.0153,-2.0252,-2.0254,-2.0165,-2.0187,-2.019,-2.0218,-2.0224,-2.0221,-2.0192,-2.0184,-2.0222,-2.0227,-2.0234,-2.0366,-2.0235,-2.024,-2.0243,-2.0514,-2.0519,-2.0524,0,0,0,0,0,0,-2.0145,-2.0158,-2.0251,-2.0202,-2.0212,-2.0194,-2.0226,-2.0221,-2.0237,-2.0225,-2.0221,-2.0212,-2.0219,-2.0227,-2.0304,-2.0366,-2.0242,-2.0247,-2.0509,-2.0516,-2.0522,-2.0632,0,0,0,0,0,0,-2.0142,-2.0157,-2.0201,-2.0203,-2.0215,-2.0322,-2.023,-2.0224,-2.0246,-2.0236,-2.0244,-2.0241,-2.0216,-2.0297,-2.0309,-2.0371,-2.0251,-2.0503,-2.0512,-2.052,-2.0623,-2.0641,-2.0657,0,0,0,0,0,-2.0137,-2.023,-2.0203,-2.0216,-2.0269,-2.0326,-2.0332,-2.0302,-2.0252,-2.0294,-2.0287,-2.0241,-2.0357,-2.0306,-2.0319,-2.0383,-2.0499,-2.051,-2.0519,-2.0615,-2.0638,-2.0657,0,0,0,0,0,0,-2.0235,-2.023,-2.02,-2.0297,-2.0312,-2.0311,-2.0364,-2.0327,-2.0357,-2.0347,-2.0307,-2.031,-2.0395,-2.0396,-2.0339,-2.0491,-2.0419,-2.0432,-2.0488,-2.051,-2.0527,-2.0525,-2.0255,0,0,0,0,0,-2.0268,-2.0315,-2.0307,-2.0393,-2.0403,-2.0382,-2.0406,-2.0381,-2.0396,-2.0402,-2.04,-2.0415,-2.0455,-2.0482,-2.0518,-2.0622,-2.0622,-2.0672,-2.0689,-2.0704,-2.0716,-2.077,-2.0792,-2.0557,-2.0557,-2.0556,0,0,-2.0336,-2.0339,-2.0371,-2.0413,-2.0422,-2.0472,-2.0388,-2.0444,-2.048,-2.041,-2.0483,-2.0482,-2.0497,-2.0588,-2.0628,-2.0592,-2.078,-2.0716,-2.0728,-2.0732,-2.0783,-2.0805,-2.0825,-2.0563,-2.0562,-2.0561,0,0,-2.0486,-2.0493,-2.0565,-2.0576,-2.0591,-2.0576,-2.0594,-2.0597,-2.0594,-2.0667,-2.0616,-2.0657,-2.0727,-2.0739,-2.0754,-2.0908,-2.0867,-2.092,-2.1012,-2.1065,-2.1084,-2.11,-2.1155,-2.1175,-2.0932,-2.0932,-2.0932,0,-2.0569,-2.0641,-2.0607,-2.0666,-2.0686,-2.0625,-2.0697,-2.0709,-2.0735,-2.075,-2.0709,-2.0794,-2.08,-2.0893,-2.093,-2.0945,-2.0963,-2.092,-2.1084,-2.11,-2.1115,-2.1167,-2.1188,-2.0939,-2.0938,-2.0937,-2.0937,0,-2.0743,-2.0794,-2.085,-2.0877,-2.0903,-2.0969,-2.0944,-2.0974,-2.0947,-2.0936,-2.1011,-2.1015,-2.1051,-2.107,-2.1044,-2.116,-2.1137,-2.1091,-2.1018,-2.1144,-2.1193,-2.1212,-2.0948,-2.0946,-2.0944,-2.0942,0,0,-2.0956,-2.0962,-2.0984,-2.0995,-2.1007,-2.1045,-2.1107,-2.1142,-2.1169,-2.1189,-2.124,-2.13,-2.1257,-2.1274,-2.1248,-2.1296,-2.1417,-2.1243,-2.1243,-2.1276,-2.1545,-2.158,-2.1604,-2.1389,-2.1393,-2.1396,-2.1544,0,-2.1104,-2.1212,-2.1182,-2.129,-2.1336,-2.1278,-2.1332,-2.1345,-2.1336,-2.1374,-2.1364,-2.1407,-2.1347,-2.1357,-2.1401,-2.1393,-2.1471,-2.1382,-2.1437,-2.1439,-2.1436,-2.1629,-2.1667,-2.1806,-2.1562,-2.1565,-2.1568,0,-2.1292,-2.1319,-2.1431,-2.1434,-2.1453,-2.1502,-2.1532,-2.1568,-2.1581,-2.1571,-2.1591,-2.1555,-2.1616,-2.1542,-2.1625,-2.1565,-2.1585,-2.1584,-2.1589,-2.1594,-2.1512,-2.164,-2.185,-2.1872,-2.1597,-2.1595,-2.1592,0,-2.1437,-2.1501,-2.1577,-2.1588,-2.1594,-2.163,-2.1633,-2.1642,-2.1665,-2.169,-2.1704,-2.1736,-2.1754,-2.1779,-2.1753,-2.1701,-2.184,-2.1764,-2.1834,-2.1835,-2.1866,-2.1865,-2.2084,-2.1879,-2.1878,-2.1878,-2.1877,0,-2.1606,-2.1677,-2.1642,-2.1689,-2.1766,-2.1731,-2.1808,-2.1805,-2.1813,-2.1858,-2.1809,-2.1851,-2.1814,-2.1853,-2.1832,-2.1904,-2.1912,-2.1906,-2.19,-2.1911,-2.1912,-2.1925,-2.1915,-2.1883,-2.1882,-2.1881,-2.188,0,-2.1782,-2.1761,-2.184,-2.1838,-2.1839,-2.1897,-2.1895,-2.1938,-2.1925,-2.1982,-2.1993,-2.1974,-2.2017,-2.1993,-2.2038,-2.2024,-2.2117,-2.2098,-2.2114,-2.2109,-2.218,-2.2174,-2.2416,-2.2445,-2.222,-2.2223,-2.2224,0,-2.1891,-2.1945,-2.1949,-2.1976,-2.1983,-2.2026,-2.2049,-2.2015,-2.2041,-2.2059,-2.21,-2.2139,-2.2168,-2.224,-2.223,-2.2263,-2.2244,-2.2327,-2.2249,-2.2258,-2.2246,-2.2244,-2.2249,-2.2343,-2.2345,-2.2347,-2.2349,0,-2.2088,-2.2075,-2.2111,-2.2143,-2.2171,-2.2195,-2.2214,-2.2238,-2.2205,-2.2236,-2.228,-2.2303,-2.2348,-2.2388,-2.2416,-2.2419,-2.2379,-2.2373,-2.2391,-2.2404,-2.2411,-2.2409,-2.2157,-2.2368,-2.2366,-2.2365,-2.2364,-2.2363,-2.2235,-2.2279,-2.2289,-2.233,-2.2341,-2.236,-2.24,-2.2392,-2.2428,-2.2463,-2.244,-2.2492,-2.2502,-2.2536,-2.2545,-2.2584,-2.2551,-2.2577,-2.2584,-2.2591,-2.2601,-2.2404,-2.2589,-2.2588,-2.2588,-2.2587,-2.2587,0,-2.2429,-2.2433,-2.2471,-2.2499,-2.2531,-2.249,-2.2509,-2.2538,-2.2584,-2.2597,-2.2627,-2.2678,-2.2715,-2.2707,-2.2741,-2.2774,-2.2757,-2.2785,-2.2782,-2.2784,-2.2629,-2.261,-2.2798,-2.2798,-2.2798,-2.2798,-2.2798,-2.2798,-2.2535,-2.2608,-2.2596,-2.2674,-2.2676,-2.2727,-2.2741,-2.2758,-2.2768,-2.2827,-2.2858,-2.2853,-2.2857,-2.2891,-2.2923,-2.292,-2.2935,-2.297,-2.296,-2.2815,-2.2794,-2.2775,-2.2757,-2.2973,-2.2973,-2.3111,-2.3112,-2.3113]},{"header":{"parameterUnit":"m.s-1","parameterCategory":1,"la1":30.2991,"la2":30.254,"lo1":-89.0895,"lo2":-89.0444,"dy":0.0017,"dx":0.0017,"nx":28,"ny":28,"refTime":"2023-08-15T21:00:00:Z","depth":0,"parameterNumber":3,"parameterNumberName":"V-component_of_WINDS"},"data":[0,0,0,0,0,0,0,0,0,0,0,0,0,0,0,0,0,0,0,0,0,0,0,0,0,0,0,0,0,0,0,0,0,0,0,0,0,0,0,0,0,0,0,0,0,0,0,0,0,0,0,0,0,0,0,0,0,0,-4.8222,-4.8222,0,-4.8279,-4.828,-4.8281,-4.823,-4.8228,-4.8226,-4.8224,-4.828,-4.8283,-4.8286,0,0,0,0,0,0,0,0,0,0,0,0,0,-4.8062,-4.8066,-4.8222,-4.8222,-4.8223,-4.8279,-4.828,-4.8281,-4.8231,-4.8228,-4.8226,-4.8223,-4.8278,-4.8282,-4.8287,0,0,0,0,0,0,0,0,0,0,0,0,0,-4.8127,-4.8067,-4.8221,-4.8205,-4.8204,-4.8279,-4.828,-4.8281,-4.8231,-4.8228,-4.8225,-4.8222,-4.8277,-4.8282,-4.8287,-4.8381,0,0,-4.8303,-4.8305,0,0,0,0,0,0,0,0,-4.8123,-4.8133,-4.8207,-4.8206,-4.8205,-4.8244,-4.8244,-4.8314,-4.8232,-4.8221,-4.8224,-4.8221,-4.827,-4.8276,-4.8293,-4.8383,-4.8385,-4.8303,-4.8306,-4.8308,-4.831,0,0,0,0,0,0,0,-4.8119,-4.813,-4.8244,-4.8208,-4.8207,-4.8193,-4.8198,-4.8257,-4.8262,-4.8221,-4.8218,-4.8226,-4.8269,-4.8288,-4.8294,-4.8386,-4.8303,-4.8308,-4.8311,-4.8313,-4.8552,-4.8555,0,0,0,0,0,0,-4.8117,-4.8127,-4.8242,-4.8246,-4.8156,-4.8198,-4.8204,-4.8235,-4.8261,-4.8262,-4.8228,-4.8223,-4.8281,-4.8288,-4.8296,-4.8405,-4.8308,-4.8313,-4.8316,-4.8549,-4.8553,-4.8556,0,0,0,0,0,0,-4.8114,-4.8128,-4.824,-4.8185,-4.8199,-4.8204,-4.8239,-4.8238,-4.8257,-4.8266,-4.8266,-4.8247,-4.8279,-4.8289,-4.8359,-4.8406,-4.8315,-4.832,-4.8545,-4.855,-4.8555,-4.8624,0,0,0,0,0,0,-4.8109,-4.8127,-4.8164,-4.8187,-4.8202,-4.8305,-4.8242,-4.8241,-4.8266,-4.826,-4.8284,-4.8285,-4.8277,-4.8352,-4.8364,-4.8411,-4.8324,-4.8541,-4.8547,-4.8553,-4.8618,-4.8631,-4.8642,0,0,0,0,0,-4.8104,-4.8181,-4.8166,-4.818,-4.8248,-4.8307,-4.8316,-4.8306,-4.827,-4.8306,-4.8312,-4.8285,-4.8399,-4.836,-4.8373,-4.8422,-4.8538,-4.8545,-4.8553,-4.8612,-4.8629,-4.8642,0,0,0,0,0,0,-4.8163,-4.8184,-4.8167,-4.8255,-4.828,-4.8299,-4.8344,-4.8324,-4.8359,-4.8351,-4.8337,-4.8342,-4.8417,-4.8427,-4.8382,-4.8512,-4.8462,-4.8473,-4.8503,-4.8519,-4.8531,-4.8526,-4.8328,0,0,0,0,0,-4.8186,-4.8234,-4.8249,-4.8325,-4.8338,-4.8339,-4.8365,-4.8355,-4.8379,-4.8389,-4.84,-4.8424,-4.8465,-4.8493,-4.8531,-4.8619,-4.8622,-4.866,-4.8672,-4.8682,-4.8691,-4.8735,-4.8751,-4.8581,-4.8581,-4.8581,0,0,-4.8235,-4.8252,-4.8283,-4.8337,-4.8355,-4.8403,-4.8348,-4.8402,-4.8436,-4.8397,-4.8464,-4.8473,-4.8498,-4.8578,-4.8613,-4.8588,-4.8738,-4.8691,-4.8699,-4.8703,-4.8744,-4.876,-4.8775,-4.8586,-4.8585,-4.8584,0,0,-4.8347,-4.8367,-4.843,-4.8449,-4.8478,-4.8477,-4.8493,-4.8514,-4.8519,-4.8586,-4.8557,-4.8597,-4.8669,-4.8687,-4.8706,-4.8823,-4.8798,-4.8836,-4.8899,-4.8943,-4.8956,-4.8968,-4.9008,-4.9022,-4.8845,-4.8845,-4.8845,0,-4.8404,-4.8476,-4.8465,-4.852,-4.8543,-4.8511,-4.8573,-4.8592,-4.8631,-4.8647,-4.8619,-4.8707,-4.8722,-4.8803,-4.8832,-4.8849,-4.8864,-4.8833,-4.8956,-4.8967,-4.8978,-4.9015,-4.9031,-4.8849,-4.8849,-4.8848,-4.8848,0,-4.8543,-4.8593,-4.8641,-4.8679,-4.8708,-4.8767,-4.8763,-4.8793,-4.878,-4.8782,-4.8849,-4.8866,-4.8906,-4.8925,-4.8913,-4.9004,-4.8987,-4.8958,-4.8907,-4.8999,-4.9033,-4.9048,-4.8856,-4.8854,-4.8853,-4.8852,0,0,-4.8695,-4.8726,-4.8743,-4.8759,-4.8787,-4.8824,-4.888,-4.892,-4.8945,-4.8972,-4.9017,-4.9078,-4.905,-4.9071,-4.9061,-4.9099,-4.9188,-4.9065,-4.9065,-4.9085,-4.9286,-4.9307,-4.9324,-4.9172,-4.9175,-4.9177,-4.9283,0,-4.8807,-4.8906,-4.8896,-4.8989,-4.9033,-4.9002,-4.905,-4.9071,-4.9074,-4.911,-4.9113,-4.9155,-4.9117,-4.9129,-4.9166,-4.9169,-4.9228,-4.9162,-4.9211,-4.9213,-4.9204,-4.9343,-4.9365,-4.9465,-4.9297,-4.9299,-4.9301,0,-4.8951,-4.8984,-4.9081,-4.9099,-4.9117,-4.9161,-4.9195,-4.9232,-4.9254,-4.9253,-4.9276,-4.9258,-4.9312,-4.9261,-4.9333,-4.9288,-4.9308,-4.9312,-4.9316,-4.9319,-4.9262,-4.9347,-4.9497,-4.9512,-4.9323,-4.9321,-4.932,0,-4.905,-4.9118,-4.9184,-4.9199,-4.9222,-4.9253,-4.9264,-4.9284,-4.9307,-4.9337,-4.9351,-4.9386,-4.9405,-4.9432,-4.9423,-4.9387,-4.9497,-4.9446,-4.9496,-4.9496,-4.9519,-4.9517,-4.9672,-4.9535,-4.9535,-4.9534,-4.9534,0,-4.9175,-4.9235,-4.9228,-4.9269,-4.9334,-4.9321,-4.9386,-4.9393,-4.941,-4.9449,-4.9424,-4.9462,-4.9449,-4.9485,-4.9478,-4.9538,-4.9547,-4.9546,-4.9543,-4.9548,-4.9547,-4.9559,-4.9551,-4.9538,-4.9537,-4.9537,-4.9536,0,-4.9296,-4.9294,-4.9364,-4.938,-4.9385,-4.9433,-4.9445,-4.9482,-4.9483,-4.9533,-4.9544,-4.9544,-4.9585,-4.9579,-4.9625,-4.962,-4.9694,-4.9684,-4.9686,-4.9683,-4.9733,-4.9728,-4.9899,-4.992,-4.9771,-4.9773,-4.9774,0,-4.9376,-4.9421,-4.9442,-4.9467,-4.948,-4.9521,-4.9544,-4.9533,-4.9558,-4.9585,-4.9618,-4.9657,-4.9687,-4.9754,-4.9757,-4.9791,-4.978,-4.9838,-4.9785,-4.9787,-4.9778,-4.9775,-4.9778,-4.9848,-4.985,-4.9851,-4.9852,0,-4.9516,-4.9512,-4.9548,-4.9582,-4.9611,-4.9638,-4.9662,-4.9683,-4.9674,-4.9703,-4.9745,-4.9768,-4.9814,-4.9852,-4.9884,-4.9893,-4.987,-4.9869,-4.9882,-4.9886,-4.9885,-4.9884,-4.9713,-4.9865,-4.9864,-4.9863,-4.9862,-4.9861,-4.9617,-4.9655,-4.9675,-4.9714,-4.9731,-4.9753,-4.9788,-4.9792,-4.9827,-4.9864,-4.9855,-4.9901,-4.9919,-4.9959,-4.9972,-5.0007,-4.9985,-5.0005,-5.0009,-5.0014,-5.0018,-4.9881,-5.0013,-5.0012,-5.0012,-5.0012,-5.0011,0,-4.9754,-4.9765,-4.9801,-4.9835,-4.9866,-4.9843,-4.9867,-4.9894,-4.9935,-4.9954,-4.9984,-5.003,-5.0067,-5.0072,-5.0106,-5.0132,-5.0123,-5.0141,-5.0138,-5.014,-5.0037,-5.0021,-5.0149,-5.0149,-5.0149,-5.0149,-5.0148,-5.0148,-4.9829,-4.9891,-4.9889,-4.9957,-4.9967,-5.0012,-5.0028,-5.0047,-5.0062,-5.0116,-5.0145,-5.0149,-5.0162,-5.0196,-5.0227,-5.0227,-5.024,-5.0263,-5.0259,-5.0162,-5.0148,-5.0135,-5.012,-5.0266,-5.0266,-5.0359,-5.036,-5.0361]}]]